Weather History for Woodward, OK

Change the Weather History Date:

Saturday, August 23, 2014

  Actual Average (KGAG) Record (KGAG)
Temperature  
Mean Temperature 84 °F -  
Max Temperature 98 °F 90 °F 108 °F (2011)
Min Temperature 69 °F 66 °F 49 °F (1961)
Cooling Degree Days 18    
Growing Degree Days 34 (Base 50)    
Moisture  
Dew Point 49 °F    
Average Humidity 28    
Maximum Humidity 50    
Minimum Humidity 18    
Precipitation  
Precipitation 0.00 in - - ()
Sea Level Pressure  
Sea Level Pressure 29.92 in    
Wind  
Wind Speed 15 mph (South)    
Max Wind Speed 25 mph    
Max Gust Speed 33 mph    
Visibility 10 miles    
Events      
Averages and records for this station are not official NWS values.
T = Trace of Precipitation, MM = Missing Value Source: NWS Daily Summary

Daily Weather History Graph

Daily Weather History Graph

Search for Another Location

Airport:

Trip Planner

Search our weather history database for the weather conditions in past years. The results will help you decide how hot, cold, wet, or windy it might be!

Date:

Astronomy

Aug. 23, 2014 Rise Set
Actual Time 7:02 AM CDT 8:18 PM CDT
Civil Twilight 6:35 AM CDT 8:45 PM CDT
Nautical Twilight 6:03 AM CDT 9:17 PM CDT
Astronomical Twilight 5:29 AM CDT 9:50 PM CDT
Moon 5:21 AM CDT (8/23) 7:03 PM CDT (8/23)
Length of Visible Light 14h 09m
Length of Day
13h 16m
Waning Crescent, 3% of the Moon is Illuminated
Aug 23
Waning Crescent
Aug 25
New
Sep 2
First Quarter
Sep 8
Full
Sep 15
Last Quarter

Hourly Weather History & Observations

Time (CDT) Temp. Heat Index Dew Point Humidity Pressure Visibility Wind Dir Wind Speed Gust Speed Precip Events Conditions
12:55 AM 86.0 °F - 44.6 °F 23% 29.95 in 10.0 mi South 17.3 mph 24.2 mph N/A   Clear
1:15 AM 84.2 °F - 44.6 °F 25% 29.95 in 10.0 mi South 18.4 mph 23.0 mph N/A   Clear
1:35 AM 82.4 °F - 44.6 °F 26% 29.95 in 10.0 mi South 18.4 mph 23.0 mph N/A   Clear
1:55 AM 82.4 °F - 44.6 °F 26% 29.97 in 10.0 mi SSW 12.7 mph 19.6 mph N/A   Clear
2:15 AM 80.6 °F - 44.6 °F 28% 29.97 in 10.0 mi SSW 16.1 mph 23.0 mph N/A   Clear
2:35 AM 80.6 °F - 44.6 °F 28% 29.97 in 10.0 mi SSW 13.8 mph - N/A   Clear
2:55 AM 80.6 °F - 46.4 °F 30% 29.96 in 10.0 mi SSW 11.5 mph - N/A   Clear
3:15 AM 78.8 °F - 46.4 °F 32% 29.95 in 10.0 mi SSW 10.4 mph - N/A   Clear
3:55 AM 77.0 °F - 48.2 °F 36% 29.95 in 10.0 mi South 8.1 mph - N/A   Clear
4:15 AM 75.2 °F - 50.0 °F 41% 29.95 in 10.0 mi South 5.8 mph - N/A   Clear
4:35 AM 73.4 °F - 50.0 °F 44% 29.95 in 10.0 mi South 8.1 mph - N/A   Clear
4:55 AM 73.4 °F - 51.8 °F 47% 29.95 in 10.0 mi South 9.2 mph - N/A   Clear
5:15 AM 73.4 °F - 53.6 °F 50% 29.94 in 10.0 mi South 6.9 mph - N/A   Clear
5:35 AM 75.2 °F - 48.2 °F 38% 29.95 in 10.0 mi South 9.2 mph - N/A   Clear
5:55 AM 75.2 °F - 46.4 °F 36% 29.95 in 10.0 mi South 10.4 mph - N/A   Clear
6:15 AM 77.0 °F - 46.4 °F 34% 29.95 in 10.0 mi SSW 10.4 mph - N/A   Clear
6:35 AM 75.2 °F - 48.2 °F 38% 29.95 in 10.0 mi SW 8.1 mph - N/A   Clear
6:55 AM 71.6 °F - 50.0 °F 46% 29.95 in 10.0 mi WSW 6.9 mph - N/A   Clear
7:15 AM 69.8 °F - 50.0 °F 49% 29.96 in 10.0 mi SSW 9.2 mph - N/A   Clear
7:35 AM 71.6 °F - 50.0 °F 46% 29.95 in 10.0 mi SSW 11.5 mph - N/A   Clear
7:55 AM 75.2 °F - 50.0 °F 41% 29.96 in 10.0 mi South 9.2 mph - N/A   Clear
8:15 AM 77.0 °F - 50.0 °F 39% 29.96 in 10.0 mi SSW 10.4 mph - N/A   Clear
8:35 AM 78.8 °F - 51.8 °F 39% 29.96 in 10.0 mi South 13.8 mph - N/A   Clear
8:55 AM 80.6 °F - 51.8 °F 37% 29.96 in 10.0 mi SSW 12.7 mph 16.1 mph N/A   Clear
9:15 AM 82.4 °F 81.7 °F 55.4 °F 39% 29.96 in 10.0 mi SSW 11.5 mph 17.3 mph N/A   Clear
9:35 AM 84.2 °F 83.0 °F 55.4 °F 37% 29.95 in 10.0 mi SSW 16.1 mph 25.3 mph N/A   Clear
9:55 AM 86.0 °F 84.5 °F 55.4 °F 35% 29.95 in 10.0 mi SSW 13.8 mph 21.9 mph N/A   Clear
10:15 AM 87.8 °F 86.1 °F 55.4 °F 33% 29.95 in 10.0 mi SSW 18.4 mph 23.0 mph N/A   Clear
10:35 AM 89.6 °F 87.3 °F 53.6 °F 29% 29.95 in 10.0 mi SSW 18.4 mph 25.3 mph N/A   Clear
11:15 AM 91.4 °F - 51.8 °F 26% 29.95 in 10.0 mi SSW 19.6 mph 27.6 mph N/A   Clear
11:35 AM 93.2 °F - 50.0 °F 23% 29.95 in 10.0 mi SSW 21.9 mph 26.5 mph N/A   Clear
11:55 AM 91.4 °F - 50.0 °F 24% 29.95 in 10.0 mi South 17.3 mph 24.2 mph N/A   Clear
12:15 PM 93.2 °F - 48.2 °F 21% 29.94 in 10.0 mi South 17.3 mph 23.0 mph N/A   Clear
12:35 PM 91.4 °F - 50.0 °F 24% 29.94 in 10.0 mi South 13.8 mph 23.0 mph N/A   Clear
12:55 PM 93.2 °F - 51.8 °F 24% 29.93 in 10.0 mi South 13.8 mph 24.2 mph N/A   Clear
1:15 PM 95.0 °F - 50.0 °F 22% 29.93 in 10.0 mi SSW 18.4 mph 25.3 mph N/A   Clear
1:35 PM 95.0 °F - 51.8 °F 23% 29.93 in 10.0 mi South 18.4 mph 29.9 mph N/A   Clear
1:55 PM 95.0 °F - 51.8 °F 23% 29.93 in 10.0 mi SSW 19.6 mph 25.3 mph N/A   Clear
2:15 PM 93.2 °F - 51.8 °F 24% 29.91 in 10.0 mi South 17.3 mph 29.9 mph N/A   Clear
2:35 PM 96.8 °F 94.4 °F 53.6 °F 23% 29.92 in 10.0 mi SSW 19.6 mph 27.6 mph N/A   Clear
2:55 PM 96.8 °F 94.4 °F 53.6 °F 23% 29.91 in 10.0 mi SSW 19.6 mph 25.3 mph N/A   Clear
3:15 PM 95.0 °F 92.7 °F 53.6 °F 25% 29.90 in 10.0 mi South 18.4 mph 26.5 mph N/A   Clear
3:35 PM 98.6 °F 96.4 °F 53.6 °F 22% 29.88 in 10.0 mi SSW 23.0 mph 33.4 mph N/A   Clear
3:55 PM 96.8 °F - 51.8 °F 22% 29.88 in 10.0 mi SSW 20.7 mph 32.2 mph N/A   Clear
4:15 PM 96.8 °F - 51.8 °F 22% 29.88 in 10.0 mi South 17.3 mph 27.6 mph N/A   Clear
4:35 PM 95.0 °F - 51.8 °F 23% 29.88 in 10.0 mi South 24.2 mph 31.1 mph N/A   Clear
4:55 PM 96.8 °F - 51.8 °F 22% 29.86 in 10.0 mi South 25.3 mph 33.4 mph N/A   Clear
5:15 PM 95.0 °F - 50.0 °F 22% 29.86 in 10.0 mi South 17.3 mph 28.8 mph N/A   Clear
5:35 PM 95.0 °F - 48.2 °F 20% 29.86 in 10.0 mi South 19.6 mph 28.8 mph N/A   Clear
5:55 PM 96.8 °F - 50.0 °F 20% 29.86 in 10.0 mi South 21.9 mph 31.1 mph N/A   Clear
6:15 PM 96.8 °F - 48.2 °F 19% 29.86 in 10.0 mi South 25.3 mph 32.2 mph N/A   Clear
6:35 PM 96.8 °F - 48.2 °F 19% 29.86 in 10.0 mi South 20.7 mph 28.8 mph N/A   Clear
6:55 PM 95.0 °F - 46.4 °F 19% 29.86 in 10.0 mi South 23.0 mph 27.6 mph N/A   Clear
7:15 PM 95.0 °F - 44.6 °F 18% 29.85 in 10.0 mi South 21.9 mph 27.6 mph N/A   Clear
7:35 PM 93.2 °F - 44.6 °F 19% 29.85 in 10.0 mi South 18.4 mph 26.5 mph N/A   Clear
7:55 PM 91.4 °F - 42.8 °F 18% 29.86 in 10.0 mi South 12.7 mph 18.4 mph N/A   Clear
8:35 PM 89.6 °F - 42.8 °F 20% 29.86 in 10.0 mi SSE 11.5 mph - N/A   Clear
8:55 PM 87.8 °F - 44.6 °F 22% 29.87 in 10.0 mi SSE 12.7 mph 16.1 mph N/A   Clear
9:15 PM 87.8 °F - 42.8 °F 21% 29.87 in 10.0 mi SSE 11.5 mph - N/A   Clear
9:35 PM 87.8 °F - 42.8 °F 21% 29.88 in 10.0 mi SSE 12.7 mph - N/A   Clear
9:55 PM 87.8 °F - 44.6 °F 22% 29.88 in 10.0 mi SSE 15.0 mph 18.4 mph N/A   Clear
10:15 PM 87.8 °F - 44.6 °F 22% 29.88 in 10.0 mi SSE 16.1 mph 20.7 mph N/A   Clear
11:15 PM 86.0 °F - 42.8 °F 22% 29.89 in 10.0 mi South 16.1 mph 21.9 mph N/A   Clear
11:35 PM 86.0 °F - 41.0 °F 20% 29.89 in 10.0 mi South 18.4 mph 23.0 mph N/A   Clear
11:55 PM 86.0 °F - 41.0 °F 20% 29.90 in 10.0 mi South 16.1 mph 23.0 mph N/A   Clear